Year,Month,Day,Hour,Minute,Value (Times are PST for temperature in C)
2013,07,04,00,00,18.90
2013,07,04,00,01,18.90
2013,07,04,00,02,18.90
2013,07,04,00,03,18.90
2013,07,04,00,04,18.90
2013,07,04,00,05,18.90
2013,07,04,00,06,18.90
2013,07,04,00,07,18.90
2013,07,04,00,08,18.90
2013,07,04,00,09,18.90
2013,07,04,00,10,18.90
2013,07,04,00,11,18.90
2013,07,04,00,12,18.90
2013,07,04,00,13,18.90
2013,07,04,00,14,18.90
2013,07,04,00,15,18.90
2013,07,04,00,16,18.90
2013,07,04,00,17,18.90
2013,07,04,00,18,18.90
2013,07,04,00,19,18.90
2013,07,04,00,20,18.90
2013,07,04,00,21,18.90
2013,07,04,00,22,18.90
2013,07,04,00,23,18.90
2013,07,04,00,24,18.90
2013,07,04,00,25,18.90
2013,07,04,00,26,18.90
2013,07,04,00,27,18.90
2013,07,04,00,28,18.90
2013,07,04,00,29,18.90
2013,07,04,00,30,18.90
2013,07,04,00,31,18.90
2013,07,04,00,32,18.80
2013,07,04,00,33,18.80
2013,07,04,00,34,18.80
2013,07,04,00,35,18.80
2013,07,04,00,36,18.80
2013,07,04,00,37,18.80
2013,07,04,00,38,18.80
2013,07,04,00,39,18.80
2013,07,04,00,40,18.80
2013,07,04,00,41,18.80
2013,07,04,00,42,18.80
2013,07,04,00,43,18.80
2013,07,04,00,44,18.80
2013,07,04,00,45,18.80
2013,07,04,00,46,18.80
2013,07,04,00,47,18.80
2013,07,04,00,48,18.70
2013,07,04,00,49,18.70
2013,07,04,00,50,18.70
2013,07,04,00,51,18.70
2013,07,04,00,52,18.70
2013,07,04,00,53,18.70
2013,07,04,00,54,18.70
2013,07,04,00,55,18.70
2013,07,04,00,56,18.60
2013,07,04,00,57,18.60
2013,07,04,00,58,18.60
2013,07,04,00,59,18.60
2013,07,04,01,00,18.60
2013,07,04,01,01,18.60
2013,07,04,01,02,18.60
2013,07,04,01,03,18.60
2013,07,04,01,04,18.50
2013,07,04,01,05,18.50
2013,07,04,01,06,18.50
2013,07,04,01,07,18.40
2013,07,04,01,08,18.40
2013,07,04,01,09,18.40
2013,07,04,01,10,18.40
2013,07,04,01,11,18.30
2013,07,04,01,12,18.30
2013,07,04,01,13,18.30
2013,07,04,01,14,18.30
2013,07,04,01,15,18.30
2013,07,04,01,16,18.20
2013,07,04,01,17,18.20
2013,07,04,01,18,18.20
2013,07,04,01,19,18.20
2013,07,04,01,20,18.20
2013,07,04,01,21,18.30
2013,07,04,01,22,18.30
2013,07,04,01,23,18.30
2013,07,04,01,24,18.30
2013,07,04,01,25,18.30
2013,07,04,01,26,18.30
2013,07,04,01,27,18.30
2013,07,04,01,28,18.40
2013,07,04,01,29,18.40
2013,07,04,01,30,18.40
2013,07,04,01,31,18.40
2013,07,04,01,32,18.40
2013,07,04,01,33,18.40
2013,07,04,01,34,18.30
2013,07,04,01,35,18.30
2013,07,04,01,36,18.30
2013,07,04,01,37,18.30
2013,07,04,01,38,18.30
2013,07,04,01,39,18.30
2013,07,04,01,40,18.30
2013,07,04,01,41,18.20
2013,07,04,01,42,18.20
2013,07,04,01,43,18.20
2013,07,04,01,44,18.20
2013,07,04,01,45,18.20
2013,07,04,01,46,18.10
2013,07,04,01,47,18.10
2013,07,04,01,48,18.10
2013,07,04,01,49,18.10
2013,07,04,01,50,18.00
2013,07,04,01,51,18.00
2013,07,04,01,52,17.90
2013,07,04,01,53,17.90
2013,07,04,01,54,17.90
2013,07,04,01,55,17.80
2013,07,04,01,56,17.80
2013,07,04,01,57,17.80
2013,07,04,01,58,17.80
2013,07,04,01,59,17.70
2013,07,04,02,00,17.70
2013,07,04,02,01,17.70
2013,07,04,02,02,17.70
2013,07,04,02,03,17.60
2013,07,04,02,04,17.60
2013,07,04,02,05,17.60
2013,07,04,02,06,17.60
2013,07,04,02,07,17.60
2013,07,04,02,08,17.60
2013,07,04,02,09,17.60
2013,07,04,02,10,17.60
2013,07,04,02,11,17.60
2013,07,04,02,12,17.60
2013,07,04,02,13,17.60
2013,07,04,02,14,17.60
2013,07,04,02,15,17.50
2013,07,04,02,16,17.50
2013,07,04,02,17,17.40
2013,07,04,02,18,17.40
2013,07,04,02,19,17.40
2013,07,04,02,20,17.40
2013,07,04,02,21,17.30
2013,07,04,02,22,17.30
2013,07,04,02,23,17.30
2013,07,04,02,24,17.30
2013,07,04,02,25,17.30
2013,07,04,02,26,17.30
2013,07,04,02,27,17.30
2013,07,04,02,28,17.20
2013,07,04,02,29,17.20
2013,07,04,02,30,17.20
2013,07,04,02,31,17.20
2013,07,04,02,32,17.20
2013,07,04,02,33,17.20
2013,07,04,02,34,17.20
2013,07,04,02,35,17.20
2013,07,04,02,36,17.20
2013,07,04,02,37,17.20
2013,07,04,02,38,17.20
2013,07,04,02,39,17.10
2013,07,04,02,40,17.10
2013,07,04,02,41,17.10
2013,07,04,02,42,17.10
2013,07,04,02,43,17.10
2013,07,04,02,44,17.10
2013,07,04,02,45,17.10
2013,07,04,02,46,17.10
2013,07,04,02,47,17.00
2013,07,04,02,48,17.00
2013,07,04,02,49,17.00
2013,07,04,02,50,17.00
2013,07,04,02,51,16.90
2013,07,04,02,52,16.90
2013,07,04,02,53,16.90
2013,07,04,02,54,16.90
2013,07,04,02,55,16.90
2013,07,04,02,56,16.90
2013,07,04,02,57,16.80
2013,07,04,02,58,16.80
2013,07,04,02,59,16.80
2013,07,04,03,00,16.80
2013,07,04,03,01,16.80
2013,07,04,03,02,16.70
2013,07,04,03,03,16.70
2013,07,04,03,04,16.70
2013,07,04,03,05,16.70
2013,07,04,03,06,16.70
2013,07,04,03,07,16.70
2013,07,04,03,08,16.70
2013,07,04,03,09,16.70
2013,07,04,03,10,16.70
2013,07,04,03,11,16.70
2013,07,04,03,12,16.70
2013,07,04,03,13,16.70
2013,07,04,03,14,16.70
2013,07,04,03,15,16.70
2013,07,04,03,16,16.70
2013,07,04,03,17,16.70
2013,07,04,03,18,16.70
2013,07,04,03,19,16.60
2013,07,04,03,20,16.60
2013,07,04,03,21,16.60
2013,07,04,03,22,16.60
2013,07,04,03,23,16.60
2013,07,04,03,24,16.60
2013,07,04,03,25,16.50
2013,07,04,03,26,16.50
2013,07,04,03,27,16.50
2013,07,04,03,28,16.50
2013,07,04,03,29,16.50
2013,07,04,03,30,16.40
2013,07,04,03,31,16.40
2013,07,04,03,32,16.40
2013,07,04,03,33,16.40
2013,07,04,03,34,16.40
2013,07,04,03,35,16.40
2013,07,04,03,36,16.30
2013,07,04,03,37,16.30
2013,07,04,03,38,16.30
2013,07,04,03,39,16.30
2013,07,04,03,40,16.30
2013,07,04,03,41,16.30
2013,07,04,03,42,16.20
2013,07,04,03,43,16.20
2013,07,04,03,44,16.20
2013,07,04,03,45,16.20
2013,07,04,03,46,16.10
2013,07,04,03,47,16.10
2013,07,04,03,48,16.10
2013,07,04,03,49,16.10
2013,07,04,03,50,16.00
2013,07,04,03,51,16.00
2013,07,04,03,52,16.00
2013,07,04,03,53,15.90
2013,07,04,03,54,15.90
2013,07,04,03,55,15.90
2013,07,04,03,56,15.90
2013,07,04,03,57,15.90
2013,07,04,03,58,15.90
2013,07,04,03,59,15.90
2013,07,04,04,00,15.90
2013,07,04,04,01,15.90
2013,07,04,04,02,15.90
2013,07,04,04,03,15.90
2013,07,04,04,04,15.90
2013,07,04,04,05,15.90
2013,07,04,04,06,15.90
2013,07,04,04,07,15.90
2013,07,04,04,08,15.90
2013,07,04,04,09,15.90
2013,07,04,04,10,15.90
2013,07,04,04,11,15.90
2013,07,04,04,12,15.90
2013,07,04,04,13,15.90
2013,07,04,04,14,15.90
2013,07,04,04,15,15.90
2013,07,04,04,16,15.90
2013,07,04,04,17,15.80
2013,07,04,04,18,15.80
2013,07,04,04,19,15.80
2013,07,04,04,20,15.80
2013,07,04,04,21,15.80
2013,07,04,04,22,15.80
2013,07,04,04,23,15.80
2013,07,04,04,24,15.80
2013,07,04,04,25,15.70
2013,07,04,04,26,15.70
2013,07,04,04,27,15.70
2013,07,04,04,28,15.70
2013,07,04,04,29,15.70
2013,07,04,04,30,15.70
2013,07,04,04,31,15.70
2013,07,04,04,32,15.60
2013,07,04,04,33,15.60
2013,07,04,04,34,15.60
2013,07,04,04,35,15.60
2013,07,04,04,36,15.60
2013,07,04,04,37,15.60
2013,07,04,04,38,15.50
2013,07,04,04,39,15.50
2013,07,04,04,40,15.50
2013,07,04,04,41,15.50
2013,07,04,04,42,15.40
2013,07,04,04,43,15.40
2013,07,04,04,44,15.40
2013,07,04,04,45,15.40
2013,07,04,04,46,15.40
2013,07,04,04,47,15.40
2013,07,04,04,48,15.40
2013,07,04,04,49,15.40
2013,07,04,04,50,15.40
2013,07,04,04,51,15.40
2013,07,04,04,52,15.30
2013,07,04,04,53,15.30
2013,07,04,04,54,15.30
2013,07,04,04,55,15.30
2013,07,04,04,56,15.30
2013,07,04,04,57,15.30
2013,07,04,04,58,15.30
2013,07,04,04,59,15.30
2013,07,04,05,00,15.20
2013,07,04,05,01,15.20
2013,07,04,05,02,15.20
2013,07,04,05,03,15.20
2013,07,04,05,04,15.20
2013,07,04,05,05,15.20
2013,07,04,05,06,15.10
2013,07,04,05,07,15.10
2013,07,04,05,08,15.00
2013,07,04,05,09,15.00
2013,07,04,05,10,15.00
2013,07,04,05,11,15.00
2013,07,04,05,12,15.00
2013,07,04,05,13,15.00
2013,07,04,05,14,15.00
2013,07,04,05,15,15.00
2013,07,04,05,16,15.00
2013,07,04,05,17,14.90
2013,07,04,05,18,14.90
2013,07,04,05,19,14.80
2013,07,04,05,20,14.80
2013,07,04,05,21,14.80
2013,07,04,05,22,14.80
2013,07,04,05,23,14.80
2013,07,04,05,24,14.80
2013,07,04,05,25,14.80
2013,07,04,05,26,14.80
2013,07,04,05,27,14.80
2013,07,04,05,28,14.80
2013,07,04,05,29,14.80
2013,07,04,05,30,14.80
2013,07,04,05,31,14.80
2013,07,04,05,32,14.80
2013,07,04,05,33,14.80
2013,07,04,05,34,14.80
2013,07,04,05,35,14.80
2013,07,04,05,36,14.80
2013,07,04,05,37,14.80
2013,07,04,05,38,14.80
2013,07,04,05,39,14.80
2013,07,04,05,40,14.80
2013,07,04,05,41,14.80
2013,07,04,05,42,14.80
2013,07,04,05,43,14.80
2013,07,04,05,44,14.80
2013,07,04,05,45,14.80
2013,07,04,05,46,14.80
2013,07,04,05,47,14.90
2013,07,04,05,48,14.90
2013,07,04,05,49,14.90
2013,07,04,05,50,14.90
2013,07,04,05,51,14.90
2013,07,04,05,52,14.90
2013,07,04,05,53,14.90
2013,07,04,05,54,14.90
2013,07,04,05,55,14.90
2013,07,04,05,56,15.00
2013,07,04,05,57,15.00
2013,07,04,05,58,15.00
2013,07,04,05,59,15.00
2013,07,04,06,00,15.00
2013,07,04,06,01,15.00
2013,07,04,06,02,15.00
2013,07,04,06,03,15.00
2013,07,04,06,04,15.00
2013,07,04,06,05,15.00
2013,07,04,06,06,15.00
2013,07,04,06,07,15.00
2013,07,04,06,08,15.00
2013,07,04,06,09,15.00
2013,07,04,06,10,15.00
2013,07,04,06,11,15.00
2013,07,04,06,12,15.00
2013,07,04,06,13,15.00
2013,07,04,06,14,15.00
2013,07,04,06,15,15.00
2013,07,04,06,16,15.00
2013,07,04,06,17,15.00
2013,07,04,06,18,15.00
2013,07,04,06,19,15.00
2013,07,04,06,20,15.00
2013,07,04,06,21,15.10
2013,07,04,06,22,15.10
2013,07,04,06,23,15.10
2013,07,04,06,24,15.10
2013,07,04,06,25,15.20
2013,07,04,06,26,15.20
2013,07,04,06,27,15.20
2013,07,04,06,28,15.20
2013,07,04,06,29,15.30
2013,07,04,06,30,15.30
2013,07,04,06,31,15.30
2013,07,04,06,32,15.30
2013,07,04,06,33,15.30
2013,07,04,06,34,15.30
2013,07,04,06,35,15.30
2013,07,04,06,36,15.30
2013,07,04,06,37,15.30
2013,07,04,06,38,15.30
2013,07,04,06,39,15.30
2013,07,04,06,40,15.40
2013,07,04,06,41,15.40
2013,07,04,06,42,15.40
2013,07,04,06,43,15.40
2013,07,04,06,44,15.40
2013,07,04,06,45,15.40
2013,07,04,06,46,15.40
2013,07,04,06,47,15.40
2013,07,04,06,48,15.40
2013,07,04,06,49,15.40
2013,07,04,06,50,15.40
2013,07,04,06,51,15.40
2013,07,04,06,52,15.40
2013,07,04,06,53,15.40
2013,07,04,06,54,15.50
2013,07,04,06,55,15.50
2013,07,04,06,56,15.50
2013,07,04,06,57,15.50
2013,07,04,06,58,15.60
2013,07,04,06,59,15.60
2013,07,04,07,00,15.60
2013,07,04,07,01,15.60
2013,07,04,07,02,15.70
2013,07,04,07,03,15.70
2013,07,04,07,04,15.70
2013,07,04,07,05,15.70
2013,07,04,07,06,15.70
2013,07,04,07,07,15.70
2013,07,04,07,08,15.70
2013,07,04,07,09,15.70
2013,07,04,07,10,15.70
2013,07,04,07,11,15.70
2013,07,04,07,12,15.70
2013,07,04,07,13,15.70
2013,07,04,07,14,15.70
2013,07,04,07,15,15.70
2013,07,04,07,16,15.70
2013,07,04,07,17,15.70
2013,07,04,07,18,15.70
2013,07,04,07,19,15.70
2013,07,04,07,20,15.70
2013,07,04,07,21,15.70
2013,07,04,07,22,15.70
2013,07,04,07,23,15.70
2013,07,04,07,24,15.70
2013,07,04,07,25,15.70
2013,07,04,07,26,15.70
2013,07,04,07,27,15.70
2013,07,04,07,28,15.80
2013,07,04,07,29,15.80
2013,07,04,07,30,15.80
2013,07,04,07,31,15.80
2013,07,04,07,32,15.90
2013,07,04,07,33,15.90
2013,07,04,07,34,15.90
2013,07,04,07,35,15.90
2013,07,04,07,36,16.00
2013,07,04,07,37,16.00
2013,07,04,07,38,15.90
2013,07,04,07,39,16.00
2013,07,04,07,40,16.00
2013,07,04,07,41,16.00
2013,07,04,07,42,16.00
2013,07,04,07,43,16.10
2013,07,04,07,44,16.10
2013,07,04,07,45,16.10
2013,07,04,07,46,16.10
2013,07,04,07,47,16.20
2013,07,04,07,48,16.20
2013,07,04,07,49,16.20
2013,07,04,07,50,16.20
2013,07,04,07,51,16.20
2013,07,04,07,52,16.30
2013,07,04,07,53,16.30
2013,07,04,07,54,16.30
2013,07,04,07,55,16.30
2013,07,04,07,56,16.30
2013,07,04,07,57,16.30
2013,07,04,07,58,16.30
2013,07,04,07,59,16.30
2013,07,04,08,00,16.40
2013,07,04,08,01,16.40
2013,07,04,08,02,16.40
2013,07,04,08,03,16.40
2013,07,04,08,04,16.40
2013,07,04,08,05,16.40
2013,07,04,08,06,16.50
2013,07,04,08,07,16.50
2013,07,04,08,08,16.50
2013,07,04,08,09,16.60
2013,07,04,08,10,16.60
2013,07,04,08,11,16.70
2013,07,04,08,12,16.70
2013,07,04,08,13,16.70
2013,07,04,08,14,16.70
2013,07,04,08,15,16.70
2013,07,04,08,16,16.70
2013,07,04,08,17,16.70
2013,07,04,08,18,16.70
2013,07,04,08,19,16.70
2013,07,04,08,20,16.80
2013,07,04,08,21,16.80
2013,07,04,08,22,16.90
2013,07,04,08,23,16.90
2013,07,04,08,24,16.90
2013,07,04,08,25,16.90
2013,07,04,08,26,16.90
2013,07,04,08,27,17.00
2013,07,04,08,28,17.00
2013,07,04,08,29,17.10
2013,07,04,08,30,17.10
2013,07,04,08,31,17.20
2013,07,04,08,32,17.20
2013,07,04,08,33,17.30
2013,07,04,08,34,17.30
2013,07,04,08,35,17.30
2013,07,04,08,36,17.40
2013,07,04,08,37,17.40
2013,07,04,08,38,17.50
2013,07,04,08,39,17.50
2013,07,04,08,40,17.50
2013,07,04,08,41,17.50
2013,07,04,08,42,17.60
2013,07,04,08,43,17.60
2013,07,04,08,44,17.60
2013,07,04,08,45,17.70
2013,07,04,08,46,17.70
2013,07,04,08,47,17.60
2013,07,04,08,48,17.60
2013,07,04,08,49,17.60
2013,07,04,08,50,17.60
2013,07,04,08,51,17.60
2013,07,04,08,52,17.60
2013,07,04,08,53,17.60
2013,07,04,08,54,17.70
2013,07,04,08,55,17.60
2013,07,04,08,56,17.60
2013,07,04,08,57,17.70
2013,07,04,08,58,17.70
2013,07,04,08,59,17.80
2013,07,04,09,00,17.80
2013,07,04,09,01,17.90
2013,07,04,09,02,17.90
2013,07,04,09,03,17.90
2013,07,04,09,04,17.90
2013,07,04,09,05,17.90
2013,07,04,09,06,17.90
2013,07,04,09,07,17.90
2013,07,04,09,08,17.90
2013,07,04,09,09,17.90
2013,07,04,09,10,17.90
2013,07,04,09,11,17.90
2013,07,04,09,12,17.90
2013,07,04,09,13,18.00
2013,07,04,09,14,18.10
2013,07,04,09,15,18.20
2013,07,04,09,16,18.30
2013,07,04,09,17,18.40
2013,07,04,09,18,18.50
2013,07,04,09,19,18.60
2013,07,04,09,20,18.80
2013,07,04,09,21,18.90
2013,07,04,09,22,19.10
2013,07,04,09,23,19.30
2013,07,04,09,24,19.40
2013,07,04,09,25,19.40
2013,07,04,09,26,19.40
2013,07,04,09,27,19.40
2013,07,04,09,28,19.40
2013,07,04,09,29,19.50
2013,07,04,09,30,19.50
2013,07,04,09,31,19.40
2013,07,04,09,32,19.30
2013,07,04,09,33,19.30
2013,07,04,09,34,19.30
2013,07,04,09,35,19.30
2013,07,04,09,36,19.20
2013,07,04,09,37,19.10
2013,07,04,09,38,19.10
2013,07,04,09,39,19.00
2013,07,04,09,40,18.90
2013,07,04,09,41,18.90
2013,07,04,09,42,18.80
2013,07,04,09,43,18.80
2013,07,04,09,44,18.70
2013,07,04,09,45,18.70
2013,07,04,09,46,18.70
2013,07,04,09,47,18.70
2013,07,04,09,48,18.70
2013,07,04,09,49,18.80
2013,07,04,09,50,18.70
2013,07,04,09,51,18.60
2013,07,04,09,52,18.50
2013,07,04,09,53,18.50
2013,07,04,09,54,18.40
2013,07,04,09,55,18.40
2013,07,04,09,56,18.40
2013,07,04,09,57,18.30
2013,07,04,09,58,18.30
2013,07,04,09,59,18.30
2013,07,04,10,00,18.30
2013,07,04,10,01,18.30
2013,07,04,10,02,18.30
2013,07,04,10,03,18.40
2013,07,04,10,04,18.60
2013,07,04,10,05,18.70
2013,07,04,10,06,18.80
2013,07,04,10,07,18.80
2013,07,04,10,08,18.80
2013,07,04,10,09,18.70
2013,07,04,10,10,18.60
2013,07,04,10,11,18.40
2013,07,04,10,12,18.40
2013,07,04,10,13,18.50
2013,07,04,10,14,18.60
2013,07,04,10,15,18.70
2013,07,04,10,16,18.60
2013,07,04,10,17,18.40
2013,07,04,10,18,18.10
2013,07,04,10,19,17.90
2013,07,04,10,20,17.70
2013,07,04,10,21,17.50
2013,07,04,10,22,17.40
2013,07,04,10,23,17.30
2013,07,04,10,24,17.40
2013,07,04,10,25,17.30
2013,07,04,10,26,17.30
2013,07,04,10,27,17.20
2013,07,04,10,28,17.30
2013,07,04,10,29,17.30
2013,07,04,10,30,17.50
2013,07,04,10,31,17.60
2013,07,04,10,32,17.70
2013,07,04,10,33,17.80
2013,07,04,10,34,17.80
2013,07,04,10,35,17.80
2013,07,04,10,36,17.80
2013,07,04,10,37,17.80
2013,07,04,10,38,17.80
2013,07,04,10,39,17.90
2013,07,04,10,40,17.90
2013,07,04,10,41,18.00
2013,07,04,10,42,18.10
2013,07,04,10,43,18.10
2013,07,04,10,44,18.20
2013,07,04,10,45,18.20
2013,07,04,10,46,18.20
2013,07,04,10,47,18.10
2013,07,04,10,48,18.00
2013,07,04,10,49,18.00
2013,07,04,10,50,18.00
2013,07,04,10,51,18.00
2013,07,04,10,52,18.10
2013,07,04,10,53,18.20
2013,07,04,10,54,18.30
2013,07,04,10,55,18.30
2013,07,04,10,56,18.30
2013,07,04,10,57,18.30
2013,07,04,10,58,18.30
2013,07,04,10,59,18.20
2013,07,04,11,00,18.10
2013,07,04,11,01,18.10
2013,07,04,11,02,18.20
2013,07,04,11,03,18.10
2013,07,04,11,04,18.30
2013,07,04,11,05,18.30
2013,07,04,11,06,18.30
2013,07,04,11,07,18.30
2013,07,04,11,08,18.30
2013,07,04,11,09,18.40
2013,07,04,11,10,18.50
2013,07,04,11,11,18.60
2013,07,04,11,12,18.70
2013,07,04,11,13,18.70
2013,07,04,11,14,18.60
2013,07,04,11,15,18.60
2013,07,04,11,16,18.50
2013,07,04,11,17,18.50
2013,07,04,11,18,18.50
2013,07,04,11,19,18.50
2013,07,04,11,20,18.60
2013,07,04,11,21,18.70
2013,07,04,11,22,18.80
2013,07,04,11,23,18.90
2013,07,04,11,24,19.00
2013,07,04,11,25,19.00
2013,07,04,11,26,19.10
2013,07,04,11,27,19.20
2013,07,04,11,28,19.20
2013,07,04,11,29,19.20
2013,07,04,11,30,19.20
2013,07,04,11,31,19.30
2013,07,04,11,32,19.30
2013,07,04,11,33,19.30
2013,07,04,11,34,19.30
2013,07,04,11,35,19.30
2013,07,04,11,36,19.30
2013,07,04,11,37,19.40
2013,07,04,11,38,19.50
2013,07,04,11,39,19.40
2013,07,04,11,40,19.20
2013,07,04,11,41,19.20
2013,07,04,11,42,19.30
2013,07,04,11,43,19.40
2013,07,04,11,44,19.50
2013,07,04,11,45,19.60
2013,07,04,11,46,19.70
2013,07,04,11,47,19.80
2013,07,04,11,48,19.90
2013,07,04,11,49,20.10
2013,07,04,11,50,20.20
2013,07,04,11,51,20.30
2013,07,04,11,52,20.30
2013,07,04,11,53,20.40
2013,07,04,11,54,20.50
2013,07,04,11,55,20.50
2013,07,04,11,56,20.50
2013,07,04,11,57,20.40
2013,07,04,11,58,20.30
2013,07,04,11,59,20.10
2013,07,04,12,00,20.00
2013,07,04,12,01,20.00
2013,07,04,12,02,19.90
2013,07,04,12,03,19.80
2013,07,04,12,04,19.80
2013,07,04,12,05,19.90
2013,07,04,12,06,19.90
2013,07,04,12,07,19.90
2013,07,04,12,08,19.80
2013,07,04,12,09,19.80
2013,07,04,12,10,20.00
2013,07,04,12,11,20.10
2013,07,04,12,12,20.10
2013,07,04,12,13,20.00
2013,07,04,12,14,20.00
2013,07,04,12,15,19.90
2013,07,04,12,16,20.00
2013,07,04,12,17,20.10
2013,07,04,12,18,20.20
2013,07,04,12,19,20.20
2013,07,04,12,20,20.20
2013,07,04,12,21,20.20
2013,07,04,12,22,20.20
2013,07,04,12,23,20.20
2013,07,04,12,24,20.20
2013,07,04,12,25,20.20
2013,07,04,12,26,20.00
2013,07,04,12,27,19.90
2013,07,04,12,28,19.90
2013,07,04,12,29,20.00
2013,07,04,12,30,19.90
2013,07,04,12,31,20.00
2013,07,04,12,32,20.10
2013,07,04,12,33,20.20
2013,07,04,12,34,20.40
2013,07,04,12,35,20.40
2013,07,04,12,36,20.50
2013,07,04,12,37,20.50
2013,07,04,12,38,20.30
2013,07,04,12,39,20.10
2013,07,04,12,40,19.90
2013,07,04,12,41,19.80
2013,07,04,12,42,19.60
2013,07,04,12,43,19.50
2013,07,04,12,44,19.40
2013,07,04,12,45,19.30
2013,07,04,12,46,19.40
2013,07,04,12,47,19.50
2013,07,04,12,48,19.60
2013,07,04,12,49,19.50
2013,07,04,12,50,19.60
2013,07,04,12,51,19.70
2013,07,04,12,52,19.70
2013,07,04,12,53,19.60
2013,07,04,12,54,19.40
2013,07,04,12,55,19.40
2013,07,04,12,56,19.40
2013,07,04,12,57,19.40
2013,07,04,12,58,19.50
2013,07,04,12,59,19.50
2013,07,04,13,00,19.40
2013,07,04,13,01,19.40
2013,07,04,13,02,19.40
2013,07,04,13,03,19.40
2013,07,04,13,04,19.50
2013,07,04,13,05,19.50
2013,07,04,13,06,19.60
2013,07,04,13,07,19.70
2013,07,04,13,08,19.70
2013,07,04,13,09,19.80
2013,07,04,13,10,19.80
2013,07,04,13,11,19.80
2013,07,04,13,12,19.80
2013,07,04,13,13,19.90
2013,07,04,13,14,19.90
2013,07,04,13,15,19.80
2013,07,04,13,16,19.70
2013,07,04,13,17,19.80
2013,07,04,13,18,19.80
2013,07,04,13,19,19.80
2013,07,04,13,20,19.90
2013,07,04,13,21,20.00
2013,07,04,13,22,20.10
2013,07,04,13,23,20.20
2013,07,04,13,24,20.20
2013,07,04,13,25,20.10
2013,07,04,13,26,19.90
2013,07,04,13,27,19.80
2013,07,04,13,28,19.80
2013,07,04,13,29,19.80
2013,07,04,13,30,19.90
2013,07,04,13,31,19.80
2013,07,04,13,32,19.70
2013,07,04,13,33,19.70
2013,07,04,13,34,19.60
2013,07,04,13,35,19.50
2013,07,04,13,36,19.50
2013,07,04,13,37,19.50
2013,07,04,13,38,19.50
2013,07,04,13,39,19.60
2013,07,04,13,40,19.50
2013,07,04,13,41,19.40
2013,07,04,13,42,19.40
2013,07,04,13,43,19.30
2013,07,04,13,44,19.30
2013,07,04,13,45,19.30
2013,07,04,13,46,19.40
2013,07,04,13,47,19.50
2013,07,04,13,48,19.60
2013,07,04,13,49,19.60
2013,07,04,13,50,19.50
2013,07,04,13,51,19.40
2013,07,04,13,52,19.30
2013,07,04,13,53,19.40
2013,07,04,13,54,19.40
2013,07,04,13,55,19.40
2013,07,04,13,56,19.40
2013,07,04,13,57,19.30
2013,07,04,13,58,19.20
2013,07,04,13,59,19.20
2013,07,04,14,00,19.10
2013,07,04,14,01,19.10
2013,07,04,14,02,19.10
2013,07,04,14,03,19.00
2013,07,04,14,04,18.90
2013,07,04,14,05,18.90
2013,07,04,14,06,18.90
2013,07,04,14,07,19.00
2013,07,04,14,08,18.90
2013,07,04,14,09,18.90
2013,07,04,14,10,18.80
2013,07,04,14,11,18.90
2013,07,04,14,12,19.00
2013,07,04,14,13,19.10
2013,07,04,14,14,19.20
2013,07,04,14,15,19.20
2013,07,04,14,16,19.20
2013,07,04,14,17,19.10
2013,07,04,14,18,19.00
2013,07,04,14,19,19.00
2013,07,04,14,20,18.90
2013,07,04,14,21,18.90
2013,07,04,14,22,18.80
2013,07,04,14,23,18.90
2013,07,04,14,24,18.90
2013,07,04,14,25,19.00
2013,07,04,14,26,19.20
2013,07,04,14,27,19.40
2013,07,04,14,28,19.50
2013,07,04,14,29,19.40
2013,07,04,14,30,19.40
2013,07,04,14,31,19.30
2013,07,04,14,32,19.30
2013,07,04,14,33,19.40
2013,07,04,14,34,19.60
2013,07,04,14,35,19.80
2013,07,04,14,36,20.10
2013,07,04,14,37,20.30
2013,07,04,14,38,20.40
2013,07,04,14,39,20.20
2013,07,04,14,40,20.00
2013,07,04,14,41,19.80
2013,07,04,14,42,19.70
2013,07,04,14,43,19.70
2013,07,04,14,44,19.60
2013,07,04,14,45,19.70
2013,07,04,14,46,19.80
2013,07,04,14,47,19.90
2013,07,04,14,48,19.90
2013,07,04,14,49,19.70
2013,07,04,14,50,19.50
2013,07,04,14,51,19.30
2013,07,04,14,52,19.30
2013,07,04,14,53,19.30
2013,07,04,14,54,19.30
2013,07,04,14,55,19.40
2013,07,04,14,56,19.50
2013,07,04,14,57,19.50
2013,07,04,14,58,19.70
2013,07,04,14,59,19.70
2013,07,04,15,00,19.70
2013,07,04,15,01,19.60
2013,07,04,15,02,19.40
2013,07,04,15,03,19.20
2013,07,04,15,04,19.20
2013,07,04,15,05,19.20
2013,07,04,15,06,19.30
2013,07,04,15,07,19.30
2013,07,04,15,08,19.20
2013,07,04,15,09,19.10
2013,07,04,15,10,18.90
2013,07,04,15,11,18.70
2013,07,04,15,12,18.70
2013,07,04,15,13,18.70
2013,07,04,15,14,18.70
2013,07,04,15,15,18.70
2013,07,04,15,16,18.80
2013,07,04,15,17,18.80
2013,07,04,15,18,18.80
2013,07,04,15,19,18.80
2013,07,04,15,20,18.90
2013,07,04,15,21,19.10
2013,07,04,15,22,19.20
2013,07,04,15,23,19.20
2013,07,04,15,24,19.20
2013,07,04,15,25,19.20
2013,07,04,15,26,19.20
2013,07,04,15,27,19.20
2013,07,04,15,28,19.30
2013,07,04,15,29,19.30
2013,07,04,15,30,19.20
2013,07,04,15,31,19.10
2013,07,04,15,32,19.10
2013,07,04,15,33,19.10
2013,07,04,15,34,19.10
2013,07,04,15,35,19.20
2013,07,04,15,36,19.30
2013,07,04,15,37,19.30
2013,07,04,15,38,19.30
2013,07,04,15,39,19.20
2013,07,04,15,40,19.10
2013,07,04,15,41,19.10
2013,07,04,15,42,19.10
2013,07,04,15,43,19.10
2013,07,04,15,44,19.10
2013,07,04,15,45,19.10
2013,07,04,15,46,19.20
2013,07,04,15,47,19.30
2013,07,04,15,48,19.30
2013,07,04,15,49,19.30
2013,07,04,15,50,19.30
2013,07,04,15,51,19.30
2013,07,04,15,52,19.30
2013,07,04,15,53,19.40
2013,07,04,15,54,19.40
2013,07,04,15,55,19.30
2013,07,04,15,56,19.30
2013,07,04,15,57,19.40
2013,07,04,15,58,19.30
2013,07,04,15,59,19.20
2013,07,04,16,00,19.10
2013,07,04,16,01,19.10
2013,07,04,16,02,19.00
2013,07,04,16,03,19.00
2013,07,04,16,04,18.90
2013,07,04,16,05,18.90
2013,07,04,16,06,18.90
2013,07,04,16,07,19.00
2013,07,04,16,08,19.10
2013,07,04,16,09,19.00
2013,07,04,16,10,18.90
2013,07,04,16,11,18.80
2013,07,04,16,12,18.70
2013,07,04,16,13,18.70
2013,07,04,16,14,18.70
2013,07,04,16,15,18.60
2013,07,04,16,16,18.60
2013,07,04,16,17,18.60
2013,07,04,16,18,18.70
2013,07,04,16,19,18.70
2013,07,04,16,20,18.70
2013,07,04,16,21,18.60
2013,07,04,16,22,18.60
2013,07,04,16,23,18.60
2013,07,04,16,24,18.60
2013,07,04,16,25,18.50
2013,07,04,16,26,18.50
2013,07,04,16,27,18.50
2013,07,04,16,28,18.40
2013,07,04,16,29,18.40
2013,07,04,16,30,18.40
2013,07,04,16,31,18.50
2013,07,04,16,32,18.50
2013,07,04,16,33,18.60
2013,07,04,16,34,18.60
2013,07,04,16,35,18.60
2013,07,04,16,36,18.50
2013,07,04,16,37,18.50
2013,07,04,16,38,18.40
2013,07,04,16,39,18.40
2013,07,04,16,40,18.40
2013,07,04,16,41,18.30
2013,07,04,16,42,18.30
2013,07,04,16,43,18.20
2013,07,04,16,44,18.00
2013,07,04,16,45,17.80
2013,07,04,16,46,17.60
2013,07,04,16,47,17.70
2013,07,04,16,48,17.80
2013,07,04,16,49,17.90
2013,07,04,16,50,18.00
2013,07,04,16,51,18.00
2013,07,04,16,52,18.10
2013,07,04,16,53,18.20
2013,07,04,16,54,18.20
2013,07,04,16,55,18.10
2013,07,04,16,56,18.10
2013,07,04,16,57,18.10
2013,07,04,16,58,18.20
2013,07,04,16,59,18.10
2013,07,04,17,00,18.10
2013,07,04,17,01,18.10
2013,07,04,17,02,18.10
2013,07,04,17,03,18.00
2013,07,04,17,04,18.00
2013,07,04,17,05,17.90
2013,07,04,17,06,17.90
2013,07,04,17,07,17.90
2013,07,04,17,08,18.00
2013,07,04,17,09,18.10
2013,07,04,17,10,18.20
2013,07,04,17,11,18.20
2013,07,04,17,12,18.20
2013,07,04,17,13,18.20
2013,07,04,17,14,18.30
2013,07,04,17,15,18.40
2013,07,04,17,16,18.40
2013,07,04,17,17,18.40
2013,07,04,17,18,18.50
2013,07,04,17,19,18.50